When you browse on this site, cookies collect data to enhance your experience and personalize the content and advertising you see.
Visit our Privacy Policy to learn more. By continuing to use the site, you agree to this use of cookies and data.
  • en Suisse
  • Liste des pays
  • À 7 jours
  • Température de l'eau
  • Carte satellitaire
  • Carte météo
  • Widgets météo
  • user-avatar
    Se connecter

    Météo par heure à Tovstoluh

    Ce jour, 23 Mars, Samedi

    Heure Température Précipitation Vent Pression Humidité
    00:00 +4°C° 0 mm 4 m/s 742 mmHg 74%
    01:00 +3°C° 0 mm 4 m/s 742 mmHg 71%
    02:00 +2°C° 0 mm 3 m/s 742 mmHg 68%
    03:00 +2°C° 0 mm 3 m/s 742 mmHg 68%
    04:00 +1°C° 0 mm 3 m/s 742 mmHg 68%
    05:00 0°C° 0 mm 3 m/s 742 mmHg 68%
    06:00 0°C° 0 mm 3 m/s 742 mmHg 64%
    07:00 0°C° 0 mm 4 m/s 742 mmHg 61%
    08:00 0°C° 0 mm 4 m/s 743 mmHg 58%
    09:00 +1°C° 0 mm 4 m/s 742 mmHg 52%
    10:00 +3°C° 0 mm 4 m/s 742 mmHg 46%
    11:00 +5°C° 0 mm 4 m/s 742 mmHg 40%
    12:00 +6°C° 0 mm 4 m/s 742 mmHg 37%
    13:00 +7°C° 0 mm 4 m/s 742 mmHg 34%
    14:00 +8°C° 0 mm 4 m/s 742 mmHg 31%
    15:00 +8°C° 0 mm 4 m/s 741 mmHg 31%
    16:00 +8°C° 0 mm 4 m/s 741 mmHg 31%
    17:00 +9°C° 0 mm 3 m/s 741 mmHg 32%
    18:00 +8°C° 0 mm 3 m/s 741 mmHg 36%
    19:00 +7°C° 0 mm 2 m/s 741 mmHg 41%
    20:00 +6°C° 0 mm 2 m/s 741 mmHg 45%
    21:00 +6°C° 0 mm 1 m/s 741 mmHg 46%
    22:00 +6°C° 0 mm 1 m/s 741 mmHg 47%
    23:00 +5°C° 0 mm 1 m/s 740 mmHg 48%

    Demain, 24 Mars, Dimanche

    Heure Température Précipitation Vent Pression Humidité
    00:00 +5°C° 0 mm 1 m/s 740 mmHg 49%
    01:00 +5°C° 0 mm 1 m/s 740 mmHg 49%
    02:00 +4°C° 0 mm 1 m/s 740 mmHg 50%
    03:00 +3°C° 0 mm 2 m/s 739 mmHg 51%
    04:00 +3°C° 0 mm 2 m/s 739 mmHg 51%
    05:00 +3°C° 0 mm 2 m/s 738 mmHg 52%
    06:00 +3°C° 0 mm 3 m/s 738 mmHg 51%
    07:00 +3°C° 0 mm 3 m/s 738 mmHg 49%
    08:00 +4°C° 0 mm 3 m/s 738 mmHg 48%
    09:00 +5°C° 0 mm 4 m/s 738 mmHg 52%
    10:00 +5°C° 0 mm 4 m/s 738 mmHg 56%
    11:00 +6°C° 0 mm 4 m/s 737 mmHg 61%
    12:00 +7°C° 0 mm 5 m/s 737 mmHg 64%
    13:00 +8°C° 0 mm 5 m/s 737 mmHg 66%
    14:00 +9°C° 0 mm 5 m/s 737 mmHg 69%
    15:00 +9°C° 0 mm 5 m/s 737 mmHg 68%
    16:00 +8°C° 0 mm 5 m/s 736 mmHg 67%
    17:00 +8°C° 0 mm 4 m/s 736 mmHg 65%
    18:00 +8°C° 0 mm 3 m/s 736 mmHg 68%
    19:00 +7°C° 0 mm 3 m/s 736 mmHg 70%
    20:00 +6°C° 0 mm 2 m/s 736 mmHg 73%
    21:00 +6°C° 0 mm 2 m/s 736 mmHg 74%
    22:00 +6°C° 0 mm 1 m/s 736 mmHg 74%
    23:00 +6°C° 0 mm 1 m/s 736 mmHg 75%

    Après-demain, 25 Mars, Lundi

    Heure Température Précipitation Vent Pression Humidité
    00:00 +6°C° 0 mm 1 m/s 735 mmHg 74%
    01:00 +5°C° 0 mm 1 m/s 735 mmHg 74%
    02:00 +5°C° 0 mm 1 m/s 734 mmHg 74%
    03:00 +5°C° 0 mm 1 m/s 734 mmHg 74%
    04:00 +4°C° 0 mm 1 m/s 733 mmHg 74%
    05:00 +4°C° 0 mm 1 m/s 733 mmHg 75%
    06:00 +4°C° 0.1 mm 1 m/s 733 mmHg 74%
    07:00 +5°C° 0.1 mm 1 m/s 733 mmHg 72%
    08:00 +5°C° 0.1 mm 1 m/s 733 mmHg 71%
    09:00 +6°C° 0.1 mm 1 m/s 733 mmHg 65%
    10:00 +6°C° 0.1 mm 2 m/s 732 mmHg 60%
    11:00 +7°C° 0.1 mm 2 m/s 732 mmHg 54%
    12:00 +8°C° 0 mm 2 m/s 732 mmHg 51%
    13:00 +9°C° 0 mm 2 m/s 731 mmHg 47%
    14:00 +10°C° 0 mm 3 m/s 731 mmHg 43%
    15:00 +10°C° 0 mm 3 m/s 730 mmHg 44%
    16:00 +10°C° 0 mm 3 m/s 730 mmHg 45%
    17:00 +9°C° 0 mm 3 m/s 730 mmHg 45%
    18:00 +9°C° 0 mm 3 m/s 730 mmHg 50%
    19:00 +8°C° 0 mm 2 m/s 730 mmHg 55%
    20:00 +7°C° 0 mm 2 m/s 730 mmHg 60%
    21:00 +6°C° 0.1 mm 2 m/s 730 mmHg 63%
    22:00 +6°C° 0.1 mm 2 m/s 730 mmHg 65%
    23:00 +6°C° 0.1 mm 2 m/s 730 mmHg 67%

    26 Mars, Mardi

    Heure Température Précipitation Vent Pression Humidité
    00:00 +4°C° 0.3 mm 3 m/s 730 mmHg 70%
    01:00 +4°C° 0.3 mm 4 m/s 730 mmHg 73%
    02:00 +2°C° 0.3 mm 5 m/s 730 mmHg 75%
    03:00 +2°C° 0.2 mm 5 m/s 731 mmHg 76%
    04:00 +1°C° 0.2 mm 5 m/s 731 mmHg 76%
    05:00 +1°C° 0.2 mm 6 m/s 731 mmHg 77%
    06:00 -1°C° 0 mm 6 m/s 732 mmHg 77%
    07:00 -1°C° 0 mm 6 m/s 732 mmHg 76%
    08:00 -1°C° 0 mm 7 m/s 733 mmHg 76%
    09:00 -1°C° 0 mm 7 m/s 733 mmHg 75%
    10:00 0°C° 0 mm 7 m/s 734 mmHg 73%
    11:00 +2°C° 0 mm 7 m/s 734 mmHg 72%
    12:00 +2°C° 0.2 mm 7 m/s 734 mmHg 70%
    13:00 +2°C° 0.2 mm 8 m/s 734 mmHg 69%
    14:00 +2°C° 0.2 mm 8 m/s 734 mmHg 67%
    15:00 +2°C° 0.1 mm 8 m/s 735 mmHg 66%
    16:00 +2°C° 0.1 mm 8 m/s 735 mmHg 65%
    17:00 +2°C° 0.1 mm 8 m/s 735 mmHg 63%
    18:00 +2°C° 0 mm 7 m/s 736 mmHg 63%
    19:00 +1°C° 0 mm 6 m/s 736 mmHg 62%
    20:00 0°C° 0 mm 5 m/s 737 mmHg 61%
    21:00 0°C° 0 mm 4 m/s 737 mmHg 64%
    22:00 -1°C° 0 mm 4 m/s 737 mmHg 67%
    23:00 -1°C° 0 mm 3 m/s 737 mmHg 71%

    27 Mars, Mercredi

    Heure Température Précipitation Vent Pression Humidité
    00:00 -1°C° 0 mm 3 m/s 737 mmHg 70%
    01:00 -2°C° 0 mm 4 m/s 737 mmHg 69%
    02:00 -2°C° 0 mm 4 m/s 737 mmHg 68%
    03:00 -2°C° 0 mm 4 m/s 737 mmHg 69%
    04:00 -2°C° 0 mm 5 m/s 737 mmHg 69%
    05:00 -2°C° 0 mm 5 m/s 737 mmHg 70%
    06:00 -1°C° 0 mm 5 m/s 737 mmHg 73%
    07:00 -1°C° 0 mm 5 m/s 738 mmHg 76%
    08:00 -1°C° 0 mm 6 m/s 738 mmHg 80%
    09:00 -1°C° 0 mm 6 m/s 738 mmHg 73%
    10:00 +1°C° 0 mm 6 m/s 739 mmHg 66%
    11:00 +1°C° 0 mm 6 m/s 739 mmHg 59%
    12:00 +2°C° 0 mm 6 m/s 739 mmHg 53%
    13:00 +3°C° 0 mm 6 m/s 739 mmHg 47%
    14:00 +3°C° 0 mm 6 m/s 739 mmHg 40%
    15:00 +3°C° 0 mm 6 m/s 739 mmHg 39%
    16:00 +3°C° 0 mm 6 m/s 740 mmHg 38%
    17:00 +3°C° 0 mm 5 m/s 740 mmHg 37%
    18:00 +3°C° 0 mm 4 m/s 740 mmHg 43%
    19:00 +2°C° 0 mm 3 m/s 740 mmHg 49%
    20:00 +2°C° 0 mm 2 m/s 741 mmHg 54%
    21:00 +2°C° 0 mm 2 m/s 741 mmHg 56%
    22:00 +3°C° 0 mm 1 m/s 741 mmHg 58%
    23:00 +3°C° 0 mm 1 m/s 741 mmHg 60%

    28 Mars, Jeudi

    Heure Température Précipitation Vent Pression Humidité
    00:00 +2°C° 0 mm 1 m/s 741 mmHg 63%
    01:00 +1°C° 0 mm 2 m/s 742 mmHg 65%
    02:00 +1°C° 0 mm 2 m/s 742 mmHg 68%
    03:00 +1°C° 0 mm 2 m/s 742 mmHg 70%
    04:00 +2°C° 0 mm 2 m/s 742 mmHg 72%
    05:00 +2°C° 0 mm 2 m/s 742 mmHg 75%
    06:00 +2°C° 0.1 mm 2 m/s 742 mmHg 74%
    07:00 +2°C° 0.1 mm 3 m/s 743 mmHg 73%
    08:00 +2°C° 0.1 mm 3 m/s 743 mmHg 72%
    09:00 +3°C° 0.1 mm 3 m/s 743 mmHg 72%
    10:00 +4°C° 0.1 mm 3 m/s 743 mmHg 72%
    11:00 +5°C° 0.1 mm 3 m/s 743 mmHg 72%
    12:00 +7°C° 0.1 mm 3 m/s 743 mmHg 67%
    13:00 +7°C° 0.1 mm 3 m/s 743 mmHg 62%
    14:00 +8°C° 0.1 mm 3 m/s 743 mmHg 56%
    15:00 +7°C° 0 mm 4 m/s 743 mmHg 54%
    16:00 +7°C° 0 mm 4 m/s 743 mmHg 51%
    17:00 +7°C° 0 mm 4 m/s 743 mmHg 49%
    18:00 +7°C° 0 mm 3 m/s 743 mmHg 53%
    19:00 +6°C° 0 mm 2 m/s 744 mmHg 58%
    20:00 +5°C° 0 mm 2 m/s 744 mmHg 63%
    21:00 +5°C° 0 mm 2 m/s 744 mmHg 65%
    22:00 +4°C° 0 mm 2 m/s 744 mmHg 66%
    23:00 +4°C° 0 mm 2 m/s 744 mmHg 68%
    Voir plus